METAR Formatted Surface Weather Observation
Issued by NWS

Home | Current Version | Previous Version | Text Only | Print | Product List | Glossary On
Versions: 1 2 3 4 5 6 7 8 9 10 11 12 13 14 15 16 17 18 19 20 21 22 23 24 25
000
SAUS45 KSLC 242228
MTRU16
METAR KU16 242158Z AUTO 22011KT 10SM OVC085 09/M07 A2981
 RMK AO2 SLP729 T00891072 $



USA.gov is the U.S. government's official web portal to all federal, state and local government web resources and services.